Location: Newark
(42.8481°N, 0.4872°E)
Time: 00:25:14
(UTC+00:00)

Transit 2A - Pass Details

Date: 29 October 2020
Orbit: 595 x 963 km, 66.7° (Epoch: 03 December)

Event Time Altitude Azimuth Distance (km) Brightness Sun altitude
Rises 00:57:49 0° 214° (SSW) 3,607 - -56.4°
Reaches altitude 10° 01:00:21 10° 215° (SW) 2,683 - -56.2°
Maximum altitude 01:06:43 77° 302° (WNW) 988 - -55.5°
Drops below altitude 10° 01:13:01 10° 29° (NNE) 2,657 - -54.7°
Exits shadow 01:14:30 - 30° (NNE) 3,197 9.7 -54.5°
Sets 01:15:31 0° 31° (NNE) 3,571 10.0 -54.4°
